TimeAKDT,TemperatureF,Dew PointF,Humidity,Sea Level PressureIn,VisibilityMPH,Wind Direction,Wind SpeedMPH,Gust SpeedMPH,PrecipitationIn,Events,Conditions,WindDirDegrees,DateUTC
12:01 AM,26.6,21.2,80,30.15,2.5,West,11.5,-,0.00,Snow,Light Snow,280,2013-05-20 08:01:00
12:13 AM,26.6,21.2,80,30.16,1.5,WNW,10.4,-,0.00,Snow,Light Snow,290,2013-05-20 08:13:00
12:30 AM,24.8,21.2,86,30.17,3.0,West,8.1,-,0.00,Snow,Light Snow,270,2013-05-20 08:30:00
12:37 AM,24.8,19.4,80,30.17,2.0,West,8.1,-,0.00,Snow,Light Snow,270,2013-05-20 08:37:00
12:53 AM,24.1,19.9,84,30.19,1.2,West,6.9,-,0.00,Snow,Light Snow,280,2013-05-20 08:53:00
1:00 AM,24.8,19.4,80,30.19,3.0,West,6.9,-,0.00,Snow,Light Snow,280,2013-05-20 09:00:00
1:32 AM,23.0,19.4,86,30.21,6.0,West,6.9,-,0.00,Snow,Light Snow,280,2013-05-20 09:32:00
1:42 AM,23.0,19.4,86,30.21,1.8,West,5.8,-,0.00,Snow,Light Snow,280,2013-05-20 09:42:00
1:53 AM,23.0,19.0,85,30.22,1.2,West,5.8,-,0.00,Snow,Light Snow,280,2013-05-20 09:53:00
2:08 AM,23.0,17.6,80,30.23,3.0,West,6.9,-,0.01,Snow,Light Snow,260,2013-05-20 10:08:00
2:36 AM,21.2,17.6,86,30.24,2.0,West,6.9,-,0.01,Snow,Light Snow,280,2013-05-20 10:36:00
2:45 AM,21.2,17.6,86,30.24,1.8,West,6.9,-,0.01,Snow,Light Snow,270,2013-05-20 10:45:00
2:53 AM,21.9,17.1,82,30.25,1.8,West,8.1,-,0.01,Snow,Light Snow,270,2013-05-20 10:53:00
3:15 AM,19.4,15.8,86,30.25,2.0,West,5.8,-,0.00,Snow,Light Snow,270,2013-05-20 11:15:00
3:26 AM,19.4,15.8,86,30.25,4.0,West,5.8,-,0.00,Snow,Light Snow,270,2013-05-20 11:26:00
3:53 AM,19.9,15.1,81,30.26,5.0,West,4.6,-,0.00,Snow,Light Snow,270,2013-05-20 11:53:00
4:53 AM,21.0,16.0,81,30.28,10.0,Calm,Calm,-,0.00,,Overcast,0,2013-05-20 12:53:00
5:21 AM,21.2,15.8,80,30.28,10.0,Calm,Calm,-,N/A,,Overcast,0,2013-05-20 13:21:00
5:42 AM,19.4,15.8,86,30.28,6.0,East,4.6,-,0.00,Snow,Light Snow,90,2013-05-20 13:42:00
5:53 AM,19.9,16.0,85,30.28,2.5,East,4.6,-,0.00,Snow,Light Snow,100,2013-05-20 13:53:00
6:19 AM,19.4,15.8,86,30.28,2.0,East,4.6,-,0.00,Snow,Light Snow,90,2013-05-20 14:19:00
6:27 AM,19.4,15.8,86,30.28,9.0,East,5.8,-,0.00,,Overcast,80,2013-05-20 14:27:00
6:53 AM,19.9,16.0,85,30.28,10.0,ENE,4.6,-,0.00,,Overcast,60,2013-05-20 14:53:00
7:02 AM,19.4,15.8,86,30.28,10.0,ENE,4.6,-,N/A,,Overcast,60,2013-05-20 15:02:00
7:22 AM,19.4,15.8,86,30.27,10.0,ENE,6.9,-,N/A,,Overcast,70,2013-05-20 15:22:00
7:53 AM,21.0,16.0,81,30.27,3.0,ENE,8.1,-,0.00,Snow,Light Snow,60,2013-05-20 15:53:00
7:57 AM,21.2,15.8,80,30.27,1.8,ENE,9.2,-,0.00,Snow,Light Snow,60,2013-05-20 15:57:00
8:10 AM,21.2,15.8,80,30.27,3.0,ENE,9.2,-,0.00,Snow,Light Snow,60,2013-05-20 16:10:00
8:20 AM,21.2,17.6,86,30.27,10.0,ENE,9.2,-,0.00,,Overcast,60,2013-05-20 16:20:00
8:53 AM,21.9,18.0,85,30.26,4.0,ENE,10.4,-,0.00,Snow,Light Snow,70,2013-05-20 16:53:00
9:06 AM,23.0,17.6,80,30.26,1.8,ENE,10.4,-,0.00,Snow,Light Snow,70,2013-05-20 17:06:00
9:37 AM,24.8,21.2,86,30.25,1.5,East,8.1,-,0.00,Snow,Light Snow,80,2013-05-20 17:37:00
9:45 AM,26.6,23.0,86,30.25,1.8,East,9.2,-,0.00,Snow,Light Snow,100,2013-05-20 17:45:00
9:53 AM,27.0,24.1,89,30.25,2.5,ESE,10.4,-,0.00,Snow,Light Snow,110,2013-05-20 17:53:00
10:11 AM,28.4,26.6,93,30.24,4.0,SSE,15.0,-,0.00,Snow,Light Snow,150,2013-05-20 18:11:00
10:24 AM,30.2,26.6,86,30.24,3.0,SSE,15.0,-,0.00,Snow,Light Snow,160,2013-05-20 18:24:00
10:53 AM,30.9,27.0,85,30.25,2.0,SSE,17.3,-,0.00,,Overcast,160,2013-05-20 18:53:00
11:46 AM,32.0,28.4,87,30.24,3.0,South,15.0,-,0.00,Snow,Light Snow,170,2013-05-20 19:46:00
11:53 AM,32.0,28.9,88,30.25,3.0,South,13.8,-,0.00,Snow,Light Snow,170,2013-05-20 19:53:00
12:00 PM,32.0,28.4,87,30.25,2.5,SSE,15.0,-,0.00,Snow,Light Snow,160,2013-05-20 20:00:00
12:48 PM,33.8,28.4,81,30.24,2.5,South,18.4,-,0.00,Snow,Light Snow,170,2013-05-20 20:48:00
12:53 PM,33.1,28.9,85,30.25,2.5,South,17.3,-,0.00,Snow,Light Snow,170,2013-05-20 20:53:00
1:53 PM,34.0,30.0,85,30.25,7.0,South,15.0,-,0.00,,Overcast,170,2013-05-20 21:53:00
2:53 PM,35.1,30.0,82,30.24,9.0,SSE,10.4,-,N/A,,Overcast,160,2013-05-20 22:53:00
3:53 PM,35.1,30.0,82,30.24,10.0,South,17.3,-,N/A,,Overcast,170,2013-05-20 23:53:00
4:53 PM,35.1,30.0,82,30.23,6.0,South,16.1,-,0.00,Snow,Light Snow,170,2013-05-21 00:53:00
5:53 PM,35.1,30.9,85,30.23,10.0,SSE,13.8,-,0.00,,Overcast,160,2013-05-21 01:53:00
6:26 PM,35.6,30.2,81,30.22,2.5,SSE,13.8,-,0.00,Snow,Light Snow,160,2013-05-21 02:26:00
6:33 PM,35.6,30.2,81,30.22,4.0,SSE,12.7,-,0.00,Snow,Light Snow,160,2013-05-21 02:33:00
6:53 PM,35.1,30.9,85,30.22,4.0,SSE,13.8,-,0.00,Snow,Light Snow,160,2013-05-21 02:53:00
7:53 PM,35.1,30.0,82,30.21,10.0,South,12.7,-,0.00,,Overcast,170,2013-05-21 03:53:00
8:53 PM,35.1,30.0,82,30.20,10.0,South,15.0,-,N/A,,Overcast,170,2013-05-21 04:53:00
9:53 PM,35.1,30.9,85,30.20,10.0,South,13.8,-,N/A,,Overcast,170,2013-05-21 05:53:00
10:53 PM,35.1,30.9,85,30.19,8.0,South,15.0,-,N/A,,Overcast,170,2013-05-21 06:53:00
11:53 PM,34.0,30.9,89,30.19,10.0,SSE,12.7,-,N/A,,Overcast,160,2013-05-21 07:53:00